This is the latest recevied weather packets stored in our database for station/object SP3SWJ-13. If no packets are shown the sender has not sent any weather packets the latest 10 day(s).
| Time | Temp. | Humidity | Pressure | Rain* | Wind** | Luminosity | Snow |
|---|---|---|---|---|---|---|---|
| 1777540055 | 10.56° C | 38% | 1021.8 hPa | - | - | 222 W/m² | - |
| 1777539755 | 10.56° C | 38% | 1021.7 hPa | - | - | 182 W/m² | - |
| 1777539454 | 10.56° C | 38% | 1021.9 hPa | - | - | 183 W/m² | - |
| 1777539152 | 10.56° C | 38% | 1022 hPa | - | - | 141 W/m² | - |
| 1777538852 | 10.56° C | 38% | 1022 hPa | - | - | 127 W/m² | - |
| 1777538551 | 10.56° C | 39% | 1022 hPa | - | - | 131 W/m² | - |
| 1777538250 | 10.56° C | 39% | 1022.1 hPa | - | - | 137 W/m² | - |
| 1777537949 | 10.56° C | 38% | 1022.2 hPa | - | - | 142 W/m² | - |
| 1777537648 | 10.56° C | 38% | 1022.2 hPa | - | - | 130 W/m² | - |
| 1777537348 | 10.56° C | 38% | 1022.2 hPa | - | - | 114 W/m² | - |
| 1777537047 | 10° C | 38% | 1022.1 hPa | - | - | 117 W/m² | - |
| 1777536746 | 10° C | 38% | 1022.2 hPa | - | - | 95 W/m² | - |
| 1777536445 | 10.56° C | 39% | 1022.1 hPa | - | - | 95 W/m² | - |
| 1777536144 | 10° C | 39% | 1022.1 hPa | - | - | 113 W/m² | - |
| 1777535843 | 10° C | 39% | 1022.2 hPa | - | - | 121 W/m² | - |
| 1777535542 | 10° C | 39% | 1022.2 hPa | - | - | 128 W/m² | - |
| 1777535241 | 10° C | 39% | 1022.2 hPa | - | - | 126 W/m² | - |
| 1777534940 | 10° C | 41% | 1022.1 hPa | - | - | 121 W/m² | - |
| 1777534639 | 9.44° C | 43% | 1022.1 hPa | - | - | 121 W/m² | - |
| 1777534338 | 10° C | 44% | 1022.2 hPa | - | - | 122 W/m² | - |
| 1777534037 | 9.44° C | 44% | 1022.1 hPa | - | - | 126 W/m² | - |
| 1777533736 | 9.44° C | 45% | 1022.2 hPa | - | - | 125 W/m² | - |
| 1777533435 | 9.44° C | 43% | 1022.2 hPa | - | - | 107 W/m² | - |
| 1777533134 | 9.44° C | 44% | 1022.3 hPa | - | - | 120 W/m² | - |
| 1777532833 | 8.89° C | 43% | 1022.2 hPa | - | - | 122 W/m² | - |
* Rain since midnight (hover to see other rain measurements)
** Current wind speed in m/s (hover to see current wind gust speed)